Hourly Weather Roundup
Issued by NWS Central Illinois

Home | Current Version | Previous Version | Graphics & Text | Print | Product List | Glossary On
Versions: 1 2 3 4 5 6 7 8 9 10 11 12 13 14 15 16 17 18 19 20 21 22 23 24 25 26 27 28 29 30 31 32 33 34 35 36 37 38 39 40 41 42 43 44 45 46 47 48 49 50
000
NZUS43 KILX 200010
HWRILX

AREA WEATHER ROUNDUP
NATIONAL WEATHER SERVICE, LINCOLN IL
700 PM CDT SUN OCT 19 2014


CITY           SKY/WX    TMP DP  RH WIND       PRES   REMARKS
BLOOMINGTON    MOCLDY    52  45  77 S10       30.03F
6HR MIN TEMP:  52; 6HR MAX TEMP:  59;

CHAMPAIGN      PTCLDY    49  42  77 S8        30.06F
6HR MIN TEMP:  49; 6HR MAX TEMP:  56;

DECATUR        CLEAR     53  44  71 S9        30.05F
6HR MIN TEMP:  53; 6HR MAX TEMP:  60;

FLORA          PTCLDY    49  44  80 SE6       30.10F
6HR MIN TEMP:  49; 6HR MAX TEMP:  59;

GALESBURG      MOCLDY    54  45  70 S6        29.98F
JACKSONVILLE   MOCLDY    55  46  72 S6        30.03F
6HR MIN TEMP:  55; 6HR MAX TEMP:  64;

LACON          MOCLDY    54  42  64 S3        29.99S
6HR MIN TEMP:  54; 6HR MAX TEMP:  60;

LAWRENCEVILLE  PTCLDY    49  43  80 CALM      30.12S
6HR MIN TEMP:  48; 6HR MAX TEMP:  55;

LITCHFIELD     PTCLDY    51  44  77 S5        30.06F
$$


CITY           SKY/WX    TMP DP  RH WIND       PRES   REMARKS
LINCOLN        PTCLDY    55  44  67 S3        30.03R
6HR MIN TEMP:  55; 6HR MAX TEMP:  63;

MACOMB         MOCLDY    57  44  61 SW7       30.02S
MATTOON        PTCLDY    49  43  80 S7        30.07F
6HR MIN TEMP:  49; 6HR MAX TEMP:  54;

MT CARMEL AP   PTCLDY    52  45  76 CALM      30.11S
OLNEY-NOBLE AP PTCLDY    46  43  87 CALM      30.11S
PARIS          CLEAR     44  41  89 S3        30.09F
6HR MIN TEMP:  44; 6HR MAX TEMP:  58;

PEORIA         MOCLDY    57  43  59 S8        30.00F
6HR MIN TEMP:  57; 6HR MAX TEMP:  63;

PONTIAC        CLOUDY    55  45  67 S8        30.01S
RANTOUL        PTCLDY    50  42  75 S6        30.06S
6HR MIN TEMP:  50; 6HR MAX TEMP:  57;

ROBINSON       PTCLDY    48  43  84 S3        30.12S
6HR MIN TEMP:  48; 6HR MAX TEMP:  55;

SPRINGFIELD    MOCLDY    52  44  74 S5        30.05S
6HR MIN TEMP:  52; 6HR MAX TEMP:  63;

TAYLORVILLE    MOCLDY    50  43  76 S6        30.05F
$$

...REGIONAL REPORTS...


CITY           SKY/WX    TMP DP  RH WIND       PRES   REMARKS
CHICAGO O`HARE MOCLDY    52  42  69 S9        29.97F
KANKAKEE       MOCLDY    51  43  74 S8        30.03F
MOLINE         MOCLDY    58  42  55 SW8       29.95F
MOUNT VERNON   PTCLDY    48  43  81 CALM      30.11S
PITTSFIELD     MOCLDY    55  45  68 S3        30.04S
QUINCY         PTCLDY    55  44  66 S5        30.01F
ROCKFORD       PTCLDY    51  41  68 S9        29.96F
$$


CITY           SKY/WX    TMP DP  RH WIND       PRES   REMARKS
BURLINGTON     PTCLDY    59  44  57 S9        29.98S
CEDAR RAPIDS   CLEAR     56  44  64 SW7       29.92R
DES MOINES     PTCLDY    62  46  55 SW9       29.94R
KIRKSVILLE     PTCLDY    56  44  64 S7        30.00F
OTTUMWA        PTCLDY    58  42  55 S8        29.95S
ST LOUIS       PTCLDY    61  45  55 CALM      30.06S
$$


CITY           SKY/WX    TMP DP  RH WIND       PRES   REMARKS
TERRE HAUTE    CLEAR     46  41  82 S5        30.10F
EVANSVILLE     MOCLDY    55  45  68 CALM      30.12S
INDIANAPOLIS   PTCLDY    50  39  66 S8        30.09S
LAFAYETTE      PTCLDY    50  40  68 S7        30.06F
MADISON        PTCLDY    55  42  61 SW6       29.90R
MILWAUKEE      PTCLDY    52  40  63 S13       29.91F
$$




USA.gov is the U.S. government's official web portal to all federal, state and local government web resources and services.